User: anonymous   Login
Location: Unspecified
(0.0000°N, 0.0000°E)
Time: 04:23:57
(UTC+01:00)
Language:

Cosmos 1536 - Orbit

View from above orbital plane
View from above orbital plane
View from above satellite
View from above satellite

Ground track
Ground track

The orbit data is extracted from the following two-line orbital elements,

1 14699U 84013A   14326.40012217  .00004143  00000-0  30688-3 0  2362
2 14699 082.5238 156.4573 0013934 016.8519 343.3166 15.02824555672109
Epoch (UTC): 22 November 2014 09:36:10
Eccentricity: 0.0013934
inclination: 82.5238°
perigee height: 548 km
apogee height: 568 km
right ascension of ascending node: 156.4573°
argument of perigee: 16.8519°
revolutions per day: 15.02824555
mean anomaly at epoch: 343.3166°
orbit number at epoch: 67210

The dashed part of the orbit path shows where the satellite is in the earth's shadow,  

DLR